EN

Hourly Weather Chiquinquira

Today, 2 March, Tuesday

Time Temperature Precipitation Wind Pressure Humidity
00:00 +10°C° 0 mm 1 mps 555 mmHg 95%
01:00 +8°C° 0 mm 0 mps 554 mmHg 95%
02:00 +9°C° 0 mm 1 mps 554 mmHg 94%
03:00 +9°C° 0 mm 1 mps 554 mmHg 94%
04:00 +9°C° 0 mm 1 mps 554 mmHg 94%
05:00 +9°C° 0 mm 1 mps 554 mmHg 93%
06:00 +10°C° 0 mm 1 mps 555 mmHg 92%
07:00 +9°C° 0 mm 0 mps 556 mmHg 90%
08:00 +12°C° 0 mm 0 mps 557 mmHg 82%
09:00 +15°C° 0 mm 1 mps 559 mmHg 75%
10:00 +18°C° 0 mm 1 mps 560 mmHg 67%
11:00 +18°C° 0.3 mm 1 mps 559 mmHg 67%
12:00 +19°C° 0.3 mm 1 mps 559 mmHg 67%
13:00 +18°C° 0.3 mm 2 mps 558 mmHg 67%
14:00 +18°C° 0.8 mm 1 mps 557 mmHg 74%
15:00 +16°C° 0.8 mm 1 mps 557 mmHg 80%
16:00 +15°C° 0.8 mm 1 mps 556 mmHg 87%
17:00 +14°C° 0.7 mm 1 mps 556 mmHg 90%
18:00 +12°C° 0.7 mm 0 mps 555 mmHg 94%
19:00 +11°C° 0.7 mm 0 mps 555 mmHg 97%
20:00 +10°C° 0.2 mm 0 mps 556 mmHg 97%
21:00 +10°C° 0.2 mm 0 mps 556 mmHg 97%
22:00 +9°C° 0.2 mm 0 mps 556 mmHg 96%
23:00 +10°C° 0 mm 1 mps 556 mmHg 96%

Tomorrow, 3 March, Wednesday

Time Temperature Precipitation Wind Pressure Humidity
00:00 +10°C° 0 mm 1 mps 556 mmHg 95%
01:00 +10°C° 0 mm 1 mps 556 mmHg 94%
02:00 +10°C° 0 mm 1 mps 555 mmHg 94%
03:00 +10°C° 0 mm 1 mps 555 mmHg 94%
04:00 +9°C° 0 mm 0 mps 555 mmHg 93%
05:00 +10°C° 0 mm 1 mps 556 mmHg 93%
06:00 +11°C° 0 mm 1 mps 556 mmHg 92%
07:00 +11°C° 0 mm 1 mps 557 mmHg 91%
08:00 +13°C° 0.1 mm 1 mps 558 mmHg 84%
09:00 +15°C° 0.1 mm 1 mps 559 mmHg 76%
10:00 +19°C° 0.1 mm 1 mps 561 mmHg 68%
11:00 +18°C° 0.7 mm 1 mps 560 mmHg 72%
12:00 +18°C° 0.7 mm 1 mps 559 mmHg 77%
13:00 +16°C° 0.7 mm 1 mps 558 mmHg 81%
14:00 +16°C° 0.9 mm 1 mps 558 mmHg 82%
15:00 +16°C° 0.9 mm 1 mps 557 mmHg 83%
16:00 +15°C° 0.9 mm 1 mps 557 mmHg 84%
17:00 +15°C° 0.8 mm 1 mps 556 mmHg 88%
18:00 +13°C° 0.8 mm 0 mps 556 mmHg 91%
19:00 +12°C° 0.8 mm 0 mps 556 mmHg 95%
20:00 +11°C° 1.2 mm 0 mps 557 mmHg 94%
21:00 +12°C° 1.2 mm 1 mps 557 mmHg 94%
22:00 +11°C° 1.2 mm 1 mps 557 mmHg 93%
23:00 +11°C° 1.2 mm 1 mps 557 mmHg 93%

Day after tomorrow, 4 March, Thursday

Time Temperature Precipitation Wind Pressure Humidity
00:00 +11°C° 1.2 mm 1 mps 557 mmHg 93%
01:00 +10°C° 1.2 mm 1 mps 556 mmHg 93%
02:00 +10°C° 0.4 mm 1 mps 556 mmHg 93%
03:00 +10°C° 0.4 mm 1 mps 556 mmHg 93%
04:00 +10°C° 0.4 mm 1 mps 556 mmHg 93%
05:00 +10°C° 0.2 mm 1 mps 556 mmHg 93%
06:00 +10°C° 0.2 mm 1 mps 556 mmHg 92%
07:00 +10°C° 0.2 mm 1 mps 557 mmHg 92%
08:00 +11°C° 0.1 mm 1 mps 558 mmHg 88%
09:00 +11°C° 0.1 mm 0 mps 559 mmHg 84%
10:00 +13°C° 0.1 mm 0 mps 560 mmHg 80%
11:00 +15°C° 0.1 mm 1 mps 560 mmHg 78%
12:00 +15°C° 0.1 mm 1 mps 559 mmHg 75%
13:00 +16°C° 0.1 mm 1 mps 559 mmHg 73%
14:00 +15°C° 0.6 mm 1 mps 558 mmHg 78%
15:00 +15°C° 0.6 mm 1 mps 558 mmHg 84%
16:00 +14°C° 0.6 mm 1 mps 557 mmHg 90%
17:00 +12°C° 0.8 mm 0 mps 557 mmHg 92%
18:00 +11°C° 0.8 mm 0 mps 556 mmHg 94%
19:00 +11°C° 0.8 mm 0 mps 556 mmHg 96%
20:00 +11°C° 0.5 mm 0 mps 557 mmHg 96%
21:00 +10°C° 0.5 mm 0 mps 557 mmHg 95%
22:00 +10°C° 0.5 mm 0 mps 557 mmHg 94%
23:00 +10°C° 0.1 mm 0 mps 557 mmHg 94%

5 March, Friday

Time Temperature Precipitation Wind Pressure Humidity
00:00 +10°C° 0.1 mm 0 mps 557 mmHg 94%
01:00 +10°C° 0.1 mm 0 mps 556 mmHg 94%
02:00 +10°C° 0 mm 0 mps 556 mmHg 93%
03:00 +9°C° 0 mm 0 mps 556 mmHg 93%
04:00 +9°C° 0 mm 0 mps 556 mmHg 93%
05:00 +9°C° 0 mm 0 mps 556 mmHg 92%
06:00 +10°C° 0 mm 0 mps 557 mmHg 91%
07:00 +10°C° 0 mm 0 mps 557 mmHg 90%
08:00 +12°C° 0 mm 0 mps 558 mmHg 85%
09:00 +14°C° 0 mm 0 mps 559 mmHg 79%
10:00 +16°C° 0 mm 0 mps 560 mmHg 73%
11:00 +18°C° 0.9 mm 1 mps 560 mmHg 75%
12:00 +18°C° 0.9 mm 1 mps 559 mmHg 77%
13:00 +18°C° 0.9 mm 1 mps 559 mmHg 79%
14:00 +18°C° 1.4 mm 1 mps 558 mmHg 82%
15:00 +16°C° 1.4 mm 1 mps 557 mmHg 85%
16:00 +16°C° 1.4 mm 1 mps 556 mmHg 88%
17:00 +15°C° 1.7 mm 1 mps 556 mmHg 91%
18:00 +13°C° 1.7 mm 0 mps 556 mmHg 94%
19:00 +12°C° 1.7 mm 0 mps 556 mmHg 96%
20:00 +11°C° 1.1 mm 0 mps 556 mmHg 96%
21:00 +11°C° 1.1 mm 0 mps 557 mmHg 96%
22:00 +11°C° 1.1 mm 0 mps 557 mmHg 97%
23:00 +11°C° 1.6 mm 0 mps 557 mmHg 96%

6 March, Saturday

Time Temperature Precipitation Wind Pressure Humidity
00:00 +11°C° 1.6 mm 0 mps 556 mmHg 96%
01:00 +10°C° 1.6 mm 0 mps 556 mmHg 96%
02:00 +11°C° 1 mm 1 mps 556 mmHg 96%
03:00 +11°C° 1 mm 1 mps 556 mmHg 96%
04:00 +11°C° 1 mm 1 mps 555 mmHg 95%
05:00 +11°C° 0.1 mm 1 mps 556 mmHg 95%
06:00 +11°C° 0.1 mm 1 mps 556 mmHg 94%
07:00 +10°C° 0.1 mm 0 mps 557 mmHg 94%
08:00 +13°C° 0.1 mm 1 mps 558 mmHg 90%
09:00 +14°C° 0.1 mm 1 mps 559 mmHg 86%
10:00 +16°C° 0.1 mm 1 mps 560 mmHg 82%
11:00 +16°C° 1.2 mm 1 mps 559 mmHg 82%
12:00 +16°C° 1.2 mm 1 mps 559 mmHg 83%
13:00 +18°C° 1.2 mm 1 mps 558 mmHg 83%
14:00 +16°C° 1.6 mm 1 mps 557 mmHg 85%
15:00 +15°C° 1.6 mm 0 mps 557 mmHg 87%
16:00 +15°C° 1.6 mm 0 mps 556 mmHg 89%
17:00 +14°C° 1.6 mm 0 mps 556 mmHg 91%
18:00 +13°C° 1.6 mm 0 mps 556 mmHg 94%
19:00 +12°C° 1.6 mm 0 mps 556 mmHg 97%
20:00 +12°C° 2.9 mm 0 mps 556 mmHg 97%
21:00 +12°C° 2.9 mm 1 mps 557 mmHg 97%
22:00 +12°C° 2.9 mm 1 mps 557 mmHg 97%
23:00 +12°C° 1.3 mm 1 mps 557 mmHg 97%

7 March, Sunday

Time Temperature Precipitation Wind Pressure Humidity
00:00 +12°C° 1.3 mm 1 mps 557 mmHg 96%
01:00 +11°C° 1.3 mm 1 mps 556 mmHg 96%
02:00 +11°C° 0 mm 1 mps 556 mmHg 95%
03:00 +11°C° 0 mm 1 mps 556 mmHg 95%
04:00 +11°C° 0 mm 1 mps 556 mmHg 95%
05:00 +11°C° 0 mm 1 mps 556 mmHg 94%
06:00 +11°C° 0 mm 1 mps 556 mmHg 94%
07:00 +11°C° 0 mm 1 mps 557 mmHg 94%
08:00 +13°C° 0 mm 1 mps 558 mmHg 84%
09:00 +15°C° 0 mm 1 mps 560 mmHg 75%
10:00 +19°C° 0 mm 1 mps 561 mmHg 65%
11:00 +19°C° 0.4 mm 1 mps 560 mmHg 68%
12:00 +19°C° 0.4 mm 1 mps 560 mmHg 70%
13:00 +19°C° 0.4 mm 1 mps 559 mmHg 73%
14:00 +19°C° 1.4 mm 1 mps 558 mmHg 77%
15:00 +18°C° 1.4 mm 1 mps 557 mmHg 82%
16:00 +15°C° 1.4 mm 0 mps 557 mmHg 87%
17:00 +14°C° 1.3 mm 0 mps 556 mmHg 90%
18:00 +13°C° 1.3 mm 0 mps 556 mmHg 92%
19:00 +12°C° 1.3 mm 0 mps 556 mmHg 95%
20:00 +12°C° 0.9 mm 1 mps 556 mmHg 95%
21:00 +12°C° 0.9 mm 1 mps 557 mmHg 96%
22:00 +12°C° 0.9 mm 1 mps 557 mmHg 96%
23:00 +11°C° 0.2 mm 1 mps 556 mmHg 96%
Show more

We Need Your Consent

Meteoprog and our Service Providers may store and access personal data such as cookies, device identifiers or other similar technologies on your device and process such data to personalise content and ads, as well as provide social media features and to analyse the traffic.

  • Store and/or access information on your device

    Cookies, device identifiers or other information can be stored or accessed on your device for the purposes indicated above.

  • Personalised ads and content, ad and content measurement, audience insights, and products development

    Ads and content can be personalised based on a profile. More data can be added to better personalise ads and content. Ad and content performance can be measured. Insights about the audience who saw the ads and content can be derived. Such data can be used to develop or improve user’s experience, systems and software.

By clicking ‘I Agree’ you will allow the use of indicated cookies, device identifiers, web beacons or other similar technologies. Your settings can be changed in the browser on your device.

For certain purposes, legitimate interests may be relied on, rather than consent. You can read more about this in our Privacy and Cookie Policy.